Other Public Products
Issued by NWS Grand Forks, ND

Home | Current Version | Previous Version | Text Only | Print | Product List | Glossary On
Versions: 1 2 3 4 5 6 7 8 9 10 11 12 13 14 15 16 17 18 19 20 21 22 23 24 25 26 27 28 29 30 31 32 33 34 35 36 37 38 39 40 41 42 43 44 45 46 47 48 49 50
000
FPUS83 KFGF 231331
OPUFGF
PRAIRIE TO PINES WEATHER ROUNDUP
NATIONAL WEATHER SERVICE EASTERN NORTH DAKOTA/GRAND FORKS ND
800 AM CDT SAT JUL 23 2016

 **SATELLITE DATA USED TO AUGMENT SKY COVER AT AUTOMATED STATIONS**
 *****  WEATHER ACROSS EASTERN NORTH DAKOTA  *****

CITY           SKY/WX    TMP DP  RH WIND       PRES   REMARKS
GRAND FORKS    PTSUNNY   69  65  86 CALM      29.85R
GRAND FORKS AF CLOUDY    70  64  83 E3        29.84S
GRAND CITY NWS   N/A     70 N/A N/A NE6         N/A
BUXTON           N/A     72  70  94 E2          N/A
DEVILS LAKE    CLOUDY    68  65  90 W13       29.90R
FARGO          CLOUDY    74  62  66 SE12      29.81F
WAHPETON ARPT  CLOUDY    73  64  73 SE10      29.81F
$$

 *****  WEATHER ACROSS CENTRAL AND WESTERN NORTH DAKOTA  *****

CITY           SKY/WX    TMP DP  RH WIND       PRES   REMARKS
JAMESTOWN      CLOUDY    72  67  84 E6        29.79F
BISMARCK       LGT RAIN  67  66  97 NE8       29.76F
MINOT          LGT RAIN  67  63  87 SE12      29.80F
MINOT AFB      CLOUDY    65  64  95 S13       29.79S
GARRISON         N/A     65  64  97 E16       29.80F
WILLISTON      CLOUDY    67  63  87 S5        29.83R
DICKINSON      PTSUNNY   67  61  81 CALM      29.80F
HETTINGER      CLOUDY    68  61  78 SE5       29.82R
$$

 *****  OTHER OBSERVATIONS NORTHEAST NORTH DAKOTA  *****

CITY           SKY/WX    TMP DP  RH WIND       PRES   REMARKS
WALHALLA       LGT RAIN  64  61  88 NE3       29.87S
LANGDON        TSTM      64  64 100 SW6       29.91R
CAVALIER       LGT RAIN  64  63  94 CALM      29.87S
GRAFTON        FAIR      66  66 100 E7        29.85F
CANDO          LGT RAIN  66  66 100 S6        29.92R
FORT TOTTEN      N/A     67  67 100 NW5       29.95S
ROLLA          LGT RAIN  64  64 100 S7        29.91R
RUGBY          NOT AVBL
 ***** THE ABOVE OBSERVATIONS ARE NON NWS ARE NOT QUALITY
        CONTROLLED AND MAY MIS-REPORT RAIN FOR SNOW...
$$

 *****  OTHER OBSERVATIONS SOUTHEAST NORTH DAKOTA *****

CITY           SKY/WX    TMP DP  RH WIND       PRES   REMARKS
COOPERSTOWN    NOT AVBL
VALLEY CITY    FAIR      73  72  94 SE10      29.81F
OAKES            N/A    N/A N/A N/A MISG        N/A
GWINNER        PTSUNNY   73  70  88 E10       29.79F
SHEYENNE NWR     N/A     74  68  81 SE7       29.95S
BUFFALO          N/A     73  65  77 E10         N/A
WYNDMERE         N/A     75  70  83 SE7         N/A
 ***** THE ABOVE OBSERVATIONS ARE NON NWS ARE NOT QUALITY
       CONTROLLED AND MAY MIS-REPORT RAIN FOR SNOW...
$$

  *****  WEATHER ACROSS NORTHERN MINNESOTA  *****

CITY           SKY/WX    TMP DP  RH WIND       PRES   REMARKS
FLAG ISLAND    CLOUDY    70  59  68 E9        29.90F
WARROAD        CLOUDY    70  63  78 E14G20    29.89F
ROSEAU         CLOUDY    66  61  82 SE8       29.89S
HALLOCK        LGT RAIN  66  63  88 E5        29.85F
THF RVR FALLS  MOSUNNY   70  63  78 E10       29.88F
HALSTAD        NOT AVBL
FOSSTON        CLOUDY    70  61  73 SE9       29.88F
BAUDETTE       MOSUNNY   66  61  84 E13       29.91F
WASKISH        CLOUDY    66  61  82 E7        29.91F
CROOKSTON      CLOUDY    72  64  78 SE3       29.84S
$$
  *****  WEATHER ACROSS CENTRAL AND WEST MINNESOTA  *****

CITY           SKY/WX    TMP DP  RH WIND       PRES   REMARKS
BEMIDJI        CLOUDY    72  61  68 SE12G17   29.91R
PARK RAPIDS    PTSUNNY   72  59  63 SE12      29.90F
WADENA         CLOUDY    72  63  73 SE12      29.88F
DETROIT LAKES  CLOUDY    72  59  64 E7        29.88S
MOORHEAD       CLOUDY    73  63  68 SE7       29.81F
FERGUS FALLS   CLOUDY    77  64  65 SE14      29.84F
ELBOW LAKE     FAIR      75  66  73 SE13G18   29.84F
MORRIS MN      CLOUDY    73  68  83 E9        29.84S
STAPLES        CLOUDY    72  61  68 SE7       29.90F
WHEATON        CLOUDY    75  72  88 E13       29.81F
$$
  *****  WEATHER ELSEWHERE ACROSS MINNESOTA  *****

CITY           SKY/WX    TMP DP  RH WIND       PRES   REMARKS
DULUTH         SUNNY     73  62  68 E7        29.99F
INTRNTL FALLS  CLOUDY    64  62  93 E6        29.96F
ELY            CLOUDY    66  61  82 CALM      30.01S
CLOQUET        SUNNY     72  57  60 E6        29.98F
BRAINERD       CLOUDY    73  65  75 VRB5      29.94F
HIBBING        SUNNY     64  61  90 E3        29.99F
ALEXANDRIA     CLOUDY    74  65  73 E12       29.91S
SAINT CLOUD    CLOUDY    75  68  78 E7        29.90F
MINNEAPOLIS    CLOUDY    79  72  79 E10       29.90F
$$

  *****  WEATHER ACROSS SOUTH DAKOTA  *****

CITY           SKY/WX    TMP DP  RH WIND       PRES   REMARKS
SIOUX FALLS    LGT RAIN  72  70  93 NE10      29.81F
BROOKINGS      RAIN      68  67  96 SE3       29.85F
WATERTOWN      LGT RAIN  69  67  93 SE9G18    29.85R
HURON          CLOUDY    71  70  96 E8        29.77R
SISSETON         N/A     73  70  90 S3        29.80S
ABERDEEN       LGT RAIN  76  72  87 E6        29.76F
MITCHELL       CLOUDY    71  69  93 E12       29.79F
PIERRE         CLOUDY    76  72  87 NE8       29.75S
MOBRIDGE       CLOUDY    75  68  78 N8G21     29.67F
RAPID CITY     SUNNY     69  59  70 E3        29.84R
$$

  *****  SOME WEATHER IN NEARBY STATES *****

CITY           SKY/WX    TMP DP  RH WIND       PRES   REMARKS
GLASGOW MT     MOSUNNY   63  52  67 W18G28    29.87R
GREAT FALLS MT CLEAR     58  42  55 S9        30.04R
CHEYENNE WY    SUNNY     70  42  36 W14       30.15R
SCOTTSBLUFF NE MOSUNNY   66  61  84 CALM      29.96R
OMAHA NE       CLOUDY    83  69  62 S10       29.84F
DES MOINES IA  CLOUDY    82  76  81 S10       29.89S
DAVENPORT IA   MOSUNNY   79  77  94 SE6       29.97F
CHICAGO IL     PTSUNNY   81  75  82 CALM      29.99S
EAU CLAIRE WI  CLOUDY    74  70  87 NE6       29.96F
LA CROSSE WI   CLOUDY    78  75  90 VRB7      29.94F
$$

  *****  SOME NATIONAL WEATHER *****

CITY           SKY/WX    TMP DP  RH WIND       PRES   REMARKS
LA GUARDIA NY  MOSUNNY   86  64  47 NW13G20   29.86R
RALEIGH NC     MOSUNNY   80  72  76 CALM      30.00S
ATLANTA GA     CLOUDY    81  74  79 SW3       30.05S
NEW ORLEANS LA PTSUNNY   84  77  79 CALM      30.00R HX  94
OKLAHOMA CITY  MOSUNNY   77  69  76 S6        29.99R
ALBUQUERQUE NM PTCLDY    69  51  52 SE7       30.18R
SALT LAKE CITY PTCLDY    71  34  25 N3        30.13R
LOS ANGELES CA MOCLDY    70  63  78 E7        29.81R
BOISE ID       CLEAR     57  41  55 S3        30.15R
SEATTLE WA     CLOUDY    59  56  89 CALM      30.27S
$$

*** WEATHER ACROSS MANITOBA...SASKATCHEWAN AND ONTARIO ***
                ***ONTARIO***

CITY           SKY/WX    TMP DP  RH WIND       PRES   REMARKS
GERALDTON      MOSUNNY   63  59  88 N6        30.05R
THUNDER BAY    PTSUNNY   68  61  77 CALM      30.01S
SIOUX LOOKOUT  PTSUNNY   66  63  88 CALM      29.99F
TORONTO        MOSUNNY   81  59  47 NW14      29.92S
BIG TROUT LK   SUNNY     57  45  62 SE7       30.03R
PICKLE LAKE    MOSUNNY   64  61  88 SE3       30.02F
DRYDEN         SUNNY     66  59  77 NE6       29.97F
KENORA         CLOUDY    66  55  68 SE9       29.94F
$$
                *** MANITOBA***

CITY           SKY/WX    TMP DP  RH WIND       PRES   REMARKS
BRANDON        LGT RAIN  66  63  88 S7        29.84R
DAUPHIN        LGT RAIN  64  61  88 S13       29.79F
ISLAND LAKE    NOT AVBL
PILOT MOUND      N/A     64  61  88 SE9         N/A
THE PAS        LGT RAIN  64  63  94 VRB2      29.77F
THOMPSON       PTSUNNY   61  52  72 S5        29.81F
WINNIPEG       CLOUDY    70  57  64 SE12      29.87S
LYNN LAKE      CLOUDY    59  55  88 MISG      29.71F
CHURCHILL      CLOUDY    55  45  67 S9        29.84F
GILLAM         MOSUNNY   59  48  67 S8        29.89S
$$
                ***SASKATCHEWAN***

CITY           SKY/WX    TMP DP  RH WIND       PRES   REMARKS
ESTEVAN        PTSUNNY   68  63  83 S8        29.79S
KINDERSLEY     CLOUDY    57  55  94 NW14G22   29.82R
LLOYDMINSTER   PTSUNNY   59  54  82 W13       29.82S
PRINCE ALBERT  LGT RAIN  64  63  94 N7        29.74F
REGINA         LGT RAIN  66  64  94 S17G23    29.68F
YORKTON        TSTM      61  61 100 S6        29.77S FOC1F1C2F2C3F3C4F4C5F5C6F6C7F7C8F8C9F9CaFaCbFbCcFcCdFdCe!



USA.gov is the U.S. government's official web portal to all federal, state and local government web resources and services.